Starlink 3146

operational
NORAD ID: 49414 Int'l Des: 2021-104 Owner: SPXS Country: US Constellation: starlink
LEOCIRCULAR

关于 Starlink 3146

正在加载描述...

实时位置

正在加载3D地球...

即将过境

高度历史

Altitude vs Time

uPlot chart will show altitude changes over time

两行轨道根数

1 49414U 21104G 25304.74618487 -.00000371 00000-0 -51946-5 0 9992
2 49414 53.2169 87.9680 0001373 94.6048 265.5101 15.08836849219164
Epoch: Oct 31, 2025 • Age: 40 hours

当前状态

高度 544.8 km
速度 7.60 km/s
星下点 50.52°N, 2.2°E
发射日期 Nov 13, 2021
运行时间 3.9 years
类型 internet

技术详情

分类 Payload
质量 290.00 kg
干质量 270.00 kg
总质量 290.00 kg
长度 0.20 m
直径 2.80 m
跨度 9.00 m
形状 Box + pan
制造商 SPXS
平台类型 Starlink
阶段状态 In Orbit
所有者/国家 SPXS/US

大型星座

Loading constellations...